This demonstration page uses our WeatherBlox Daily Observations layout. Learn more.

Left ArrowRight Arrow

34.16533, -84.80231

Hourly Observations for December 20, 2017

Temp ( °F °C ) Dew Point ( °F °C ) Humidity (%) Winds ( mph kmh ) Pressure ( in mb ) Visibility ( mi km ) Precip ( " mm )
12:04 am 00:04 Cloudy with Mist and Fog 55 12.8 55 12.8 100 100 Calm 30.09 1019 3 4 0.00 0.00
12:11 am 00:11 Cloudy with Mist and Fog 56 13.3 56 13.3 100 100 Calm 30.06 1018 3 5 0.00 0.00
12:18 am 00:18 Cloudy with Mist and Fog 55 12.8 55 12.8 100 100 Calm 30.06 1018 3 4 0.00 0.00
12:53 am 00:53 Cloudy with Mist and Fog 55 12.8 55 12.8 100 100 Calm 30.03 1017 2 3 0.00 0.00
1:06 am 01:06 Cloudy with Light Rain 55 12.8 55 12.8 100 100 N 3 6 30.06 1018 2 3 0.01 0.25
1:11 am 01:11 Cloudy with Light Rain 55 12.8 55 12.8 100 100 E 3 6 30.06 1018 2 3 0.01 0.25
1:22 am 01:22 Cloudy with Light Rain 55 12.8 55 12.8 100 100 Calm 30.06 1018 2 3 0.02 0.51
1:25 am 01:25 Cloudy with Rain 55 12.8 55 12.8 100 100 Calm 30.06 1018 2 3 0.04 1.02
1:45 am 01:45 Cloudy with Light Rain 55 12.8 55 12.8 100 100 Calm 30.06 1018 2 3 0.11 2.79
1:51 am 01:51 Cloudy with Light Rain 55 13 55 13 100 100 Calm 30.06 1018 3 5 0.11 2.79
1:52 am 01:52 Cloudy with Light Rain 56 13.3 56 13.3 100 100 Calm 30.01 1016 3 5 0.11 2.79
2:04 am 02:04 Cloudy with Mist and Fog 56 13.3 56 13.3 100 100 N 3 6 30.06 1018 3 4 0.00 0.03
2:29 am 02:29 Cloudy with Mist and Fog 56 13.3 56 13.3 100 100 Calm 30.06 1018 1 2 0.00 0.03
2:48 am 02:48 Cloudy with Mist and Fog 55 13 55 13 100 100 Calm 30.06 1018 3 5 0.00 0.03
2:53 am 02:53 Cloudy with Mist and Fog 56 13.3 56 13.3 100 100 Calm 29.99 1016 3 4 0.00 0.03
3:00 am 03:00 Cloudy with Mist and Fog 56 13.3 56 13.3 100 100 Calm 30.03 1017 3 4 0.00 0.00
3:08 am 03:08 Cloudy with Mist and Fog 56 13.3 56 13.3 100 100 Calm 30.03 1017 2 3 0.00 0.00
3:42 am 03:42 Cloudy with Mist and Fog 56 13.3 56 13.3 100 100 Calm 30.03 1017 3 5 0.00 0.00
3:53 am 03:53 Cloudy with Mist and Fog 57 13.9 57 13.9 100 100 Calm 29.97 1015 4 6 0.00 0.00
4:31 am 04:31 Cloudy with Light Rain 61 16.1 61 16.1 100 100 VRB 3 6 29.97 1015 10 16 0.00 0.03
4:53 am 04:53 Cloudy 63 17.2 63 17.2 100 100 SSW 6 9 29.93 1014 10 16 0.00 0.03
5:53 am 05:53 Cloudy 63 17.2 63 17.2 100 100 S 6 9 29.91 1013 10 16 0.00 0.00
6:53 am 06:53 Cloudy 63 17.2 63 17.2 100 100 S 6 9 29.90 1012 10 16 0.00 0.03
7:53 am 07:53 Cloudy 63 17.2 63 17.2 100 100 SSW 5 7 29.88 1012 10 16 0.01 0.25
8:31 am 08:31 Cloudy with Rain 60 15.6 60 15.6 100 100 N 10 17 29.91 1013 4 6 0.05 1.27
8:34 am 08:34 Cloudy with Heavy Rain 59 15 59 15 100 100 N 18 30 29.91 1013 3 4 0.11 2.79
8:38 am 08:38 Cloudy with Heavy Rain 59 15 59 15 100 100 NNW 10 17 29.91 1013 2 3 0.19 4.83
8:53 am 08:53 Cloudy with Heavy Rain 58 14.4 58 14.4 100 100 N 16 26 29.91 1013 2 3 0.39 9.91
9:05 am 09:05 Cloudy with Rain 58 14.4 58 14.4 100 100 N 14 22 29.91 1013 3 5 0.10 2.54
9:53 am 09:53 Cloudy with Rain 58 14.4 58 14.4 100 100 NNE 6 9 29.92 1013 3 5 0.26 6.60
10:09 am 10:09 Cloudy with Rain 58 14.4 58 14.4 100 100 NE 5 7 29.94 1014 4 6 0.06 1.52
10:23 am 10:23 Cloudy with Light Rain 58 14.4 58 14.4 100 100 Calm 29.94 1014 6 10 0.08 2.03
10:53 am 10:53 Cloudy with Rain 58 14.4 58 14.4 100 100 Calm 29.93 1014 3 5 0.14 3.56
10:58 am 10:58 Cloudy with Rain 58 14.4 58 14.4 100 100 Calm 29.97 1015 2 3 0.02 0.51
11:13 am 11:13 Cloudy with Rain 58 14.4 58 14.4 100 100 ESE 3 6 29.94 1014 3 5 0.09 2.29
11:53 am 11:53 Cloudy 59 15 59 15 100 100 ESE 9 15 29.88 1012 10 16 0.14 3.56
12:53 pm 12:53 Cloudy 61 16.1 60 15.6 97 97 E 7 11 29.83 1010 10 16 0.00 0.00
1:04 pm 13:04 Mostly Cloudy 62 16.7 60 15.6 93 93 E 7 11 29.83 1010 10 16 0.00 0.00
1:53 pm 13:53 Mostly Cloudy 63 17.2 60 15.6 90 90 SE 7 11 29.83 1010 10 16 0.00 0.00
2:53 pm 14:53 Cloudy 63 17.2 60 15.6 90 90 ESE 6 9 29.83 1010 10 16 0.00 0.00
3:07 pm 15:07 Cloudy 63 17.2 60 15.6 90 90 SSE 5 7 29.85 1011 10 16 0.00 0.00
3:17 pm 15:17 Cloudy 63 17.2 59 15 87 87 SSE 6 9 29.85 1011 10 16 0.00 0.00
3:53 pm 15:53 Cloudy 63 17.2 60 15.6 90 90 ESE 5 7 29.82 1010 10 16 0.00 0.00
4:34 pm 16:34 Partly Cloudy 62 16.7 60 15.6 93 93 E 6 9 29.83 1010 10 16 0.00 0.00
4:53 pm 16:53 Mostly Cloudy 62 16.7 60 15.6 93 93 VRB 3 6 29.81 1010 10 16 0.00 0.00
5:07 pm 17:07 Cloudy 64 17.8 60 15.6 87 87 VRB 3 6 29.83 1010 10 16 0.00 0.00
5:40 pm 17:40 Cloudy 61 16.1 60 15.6 97 97 ENE 3 6 29.83 1010 10 16 0.00 0.00
5:53 pm 17:53 Cloudy 61 16.1 60 15.6 97 97 VRB 3 6 29.83 1010 10 16 0.00 0.00
6:53 pm 18:53 Partly Cloudy 59 15 59 15 100 100 E 5 7 29.83 1010 10 16 0.00 0.00
7:53 pm 19:53 Cloudy 59 15 59 15 100 100 ESE 6 9 29.85 1011 10 16 0.00 0.00
8:35 pm 20:35 Mostly Cloudy 59 15 58 14.4 96 96 ESE 5 7 29.88 1012 10 16 0.00 0.00
8:53 pm 20:53 Cloudy 58 14.4 58 14.4 100 100 ENE 5 7 29.87 1012 10 16 0.00 0.00
9:06 pm 21:06 Cloudy 58 14.4 58 14.4 100 100 E 5 7 29.91 1013 10 16 0.00 0.00
9:53 pm 21:53 Cloudy 58 14.4 58 14.4 100 100 ESE 7 11 29.88 1012 10 16 0.00 0.00
10:53 pm 22:53 Cloudy 58 14.4 58 14.4 100 100 SE 3 6 29.90 1013 10 16 0.00 0.00
11:32 pm 23:32 Cloudy 58 14.4 58 14.4 100 100 ENE 3 6 29.94 1014 10 16 0.00 0.00
11:45 pm 23:45 Cloudy 58 14.4 58 14.4 100 100 E 5 7 29.94 1014 10 16 0.00 0.00
11:53 pm 23:53 Cloudy 58 14.4 58 14.4 100 100 E 3 6 29.92 1013 10 16 0.00 0.00

Powered by AerisWeather